User: anonymous   Login
Location: ?
(35.4214°N, 139.3011°E)
Time: 23:23:22
(UTC+00:00)
Language:

Cosmos 2237 Rocket - Orbit

View from above orbital plane
View from above orbital plane
View from above satellite
View from above satellite

Ground track
Ground track

The orbit data is extracted from the following two-line orbital elements,

1 22566U 93016B   20273.45986004 +.00000172 +00000-0 +11356-3 0  9999
2 22566 071.0075 067.4283 0008268 111.6939 248.5065 14.14968944421048
Epoch (UTC): 29 September 2020 11:02:11
Eccentricity: 0.0008268
inclination: 71.0075°
perigee height: 836 km
apogee height: 848 km
right ascension of ascending node: 67.4283°
argument of perigee: 111.6939°
revolutions per day: 14.14968944
mean anomaly at epoch: 248.5065°
orbit number at epoch: 42104

The dashed part of the orbit path shows where the satellite is in the earth's shadow,  

DLR